Weather History for KARG - December, 2010

Change the Weather History Date:

Friday, December 24, 2010

  Actual Average Record
Temperature  
Mean Temperature 34 °F -  
Max Temperature 37 °F 42 °F 57 °F (2008)
Min Temperature 32 °F 27 °F 3 °F (2004)
Degree Days  
Heating Degree Days 30    
Moisture  
Dew Point 28 °F    
Average Humidity 75    
Maximum Humidity 87    
Minimum Humidity 65    
Precipitation  
Precipitation 0.03 in - - ()
Sea Level Pressure  
Sea Level Pressure 30.25 in    
Wind  
Wind Speed 6 mph (NE)    
Max Wind Speed 9 mph    
Max Gust Speed -    
Visibility 9 miles    
Events      
Averages and records for this station are not official NWS values.
T = Trace of Precipitation, MM = Missing Value Source: NWS Daily Summary

Daily Weather History Graph

Daily Weather History Graph

Search for Another Location

Airport or City:

Trip Planner

Search our weather history database for the weather conditions in past years. The results will help you decide how hot, cold, wet, or windy it might be!

Date:

Astronomy

Dec. 24, 2010 Rise Set
Actual Time 7:12 AM CST 4:54 PM CST
Civil Twilight 6:43 AM CST 5:23 PM CST
Nautical Twilight 6:11 AM CST 5:55 PM CST
Astronomical Twilight 5:40 AM CST 6:26 PM CST
Moon 8:55 PM CST (12/24) 9:37 AM CST (12/24)
Length of Visible Light 10h 39m
Length of Day
9h 42m
Waning Gibbous, 86% of the Moon is Illuminated
Dec 24
Waning Gibbous
Dec 27
Last Quarter
Jan 4
New
Jan 12
First Quarter
Jan 19
Full

Hourly Weather History & Observations

Time (CST) Temp. Windchill Dew Point Humidity Pressure Visibility Wind Dir Wind Speed Gust Speed Precip Events Conditions
12:15 AM 33.8 °F 28.6 °F 26.6 °F 75% 30.32 in 10.0 mi ENE 5.8 mph - N/A   Partly Cloudy
12:35 AM 32.0 °F 26.4 °F 26.6 °F 80% 30.32 in 10.0 mi ENE 5.8 mph - N/A   Clear
12:55 AM 33.8 °F 28.6 °F 26.6 °F 75% 30.31 in 10.0 mi ENE 5.8 mph - N/A   Mostly Cloudy
1:15 AM 33.8 °F 28.6 °F 26.6 °F 75% 30.32 in 10.0 mi ENE 5.8 mph - N/A   Overcast
1:35 AM 32.0 °F 26.4 °F 24.8 °F 75% 30.31 in 10.0 mi ENE 5.8 mph - N/A   Mostly Cloudy
1:55 AM 32.0 °F 27.5 °F 26.6 °F 80% 30.31 in 10.0 mi ENE 4.6 mph - N/A   Overcast
2:15 AM 33.8 °F 28.6 °F 26.6 °F 75% 30.31 in 10.0 mi NE 5.8 mph - N/A   Overcast
2:35 AM 33.8 °F 28.6 °F 26.6 °F 75% 30.31 in 10.0 mi NNE 5.8 mph - N/A   Overcast
2:55 AM 33.8 °F 29.6 °F 26.6 °F 75% 30.31 in 10.0 mi NE 4.6 mph - N/A   Overcast
3:15 AM 33.8 °F 28.6 °F 26.6 °F 75% 30.31 in 10.0 mi NE 5.8 mph - N/A   Overcast
3:35 AM 33.8 °F 28.6 °F 26.6 °F 75% 30.31 in 10.0 mi NNE 5.8 mph - N/A   Overcast
3:55 AM 33.8 °F 28.6 °F 26.6 °F 75% 30.31 in 10.0 mi NNE 5.8 mph - N/A   Overcast
4:15 AM 33.8 °F 28.6 °F 26.6 °F 75% 30.31 in 10.0 mi North 5.8 mph - N/A   Overcast
4:35 AM 33.8 °F 27.7 °F 26.6 °F 75% 30.31 in 10.0 mi NNE 6.9 mph - N/A   Overcast
4:55 AM 33.8 °F 27.7 °F 26.6 °F 75% 30.29 in 10.0 mi ENE 6.9 mph - N/A   Overcast
5:15 AM 33.8 °F 27.7 °F 26.6 °F 75% 30.29 in 10.0 mi ENE 6.9 mph - N/A   Overcast
5:35 AM 33.8 °F 28.6 °F 26.6 °F 75% 30.30 in 10.0 mi ENE 5.8 mph - N/A   Overcast
6:15 AM 33.8 °F 28.6 °F 26.6 °F 75% 30.30 in 10.0 mi NE 5.8 mph - N/A   Overcast
6:35 AM 33.8 °F 27.0 °F 26.6 °F 75% 30.29 in 10.0 mi ENE 8.1 mph - N/A   Overcast
6:55 AM 33.8 °F 27.7 °F 26.6 °F 75% 30.29 in 10.0 mi ENE 6.9 mph - N/A   Overcast
7:15 AM 35.6 °F 32.8 °F 26.6 °F 70% 30.30 in 10.0 mi East 3.5 mph - N/A   Overcast
7:35 AM 35.6 °F 31.7 °F 26.6 °F 70% 30.30 in 10.0 mi ENE 4.6 mph - N/A   Overcast
7:55 AM 35.6 °F 29.9 °F 28.4 °F 75% 30.32 in 10.0 mi North 6.9 mph - N/A   Overcast
8:15 AM 35.6 °F 29.9 °F 26.6 °F 70% 30.32 in 10.0 mi NNE 6.9 mph - N/A   Overcast
8:35 AM 35.6 °F 31.7 °F 26.6 °F 70% 30.33 in 10.0 mi NNE 4.6 mph - N/A   Overcast
8:55 AM 35.6 °F 30.7 °F 26.6 °F 70% 30.32 in 10.0 mi NE 5.8 mph - N/A   Overcast
9:15 AM 35.6 °F 30.7 °F 26.6 °F 70% 30.33 in 10.0 mi NNE 5.8 mph - N/A   Overcast
9:35 AM 35.6 °F 29.9 °F 26.6 °F 70% 30.32 in 10.0 mi NNE 6.9 mph - N/A   Overcast
9:55 AM 37.4 °F 32.1 °F 26.6 °F 65% 30.32 in 10.0 mi NE 6.9 mph - N/A   Overcast
10:15 AM 35.6 °F 28.6 °F 24.8 °F 65% 30.30 in 10.0 mi East 9.2 mph - N/A   Overcast
10:35 AM 35.6 °F 29.9 °F 26.6 °F 70% 30.29 in 10.0 mi East 6.9 mph - N/A   Overcast
10:55 AM 35.6 °F 29.9 °F 26.6 °F 70% 30.27 in 10.0 mi East 6.9 mph - N/A   Overcast
11:15 AM 35.6 °F 29.9 °F 26.6 °F 70% 30.26 in 10.0 mi East 6.9 mph - N/A   Overcast
11:35 AM 35.6 °F 31.7 °F 26.6 °F 70% 30.25 in 10.0 mi ESE 4.6 mph - N/A   Overcast
11:55 AM 37.4 °F 34.9 °F 26.6 °F 65% 30.24 in 10.0 mi ESE 3.5 mph - N/A   Overcast
12:15 PM 37.4 °F - 26.6 °F 65% 30.23 in 10.0 mi Calm Calm - N/A   Overcast
12:35 PM 37.4 °F - 26.6 °F 65% 30.21 in 10.0 mi Calm Calm - N/A   Overcast
12:55 PM 37.4 °F - 28.4 °F 70% 30.22 in 10.0 mi Calm Calm - N/A   Overcast
1:15 PM 37.4 °F - 28.4 °F 70% 30.21 in 10.0 mi Calm Calm - N/A   Overcast
1:35 PM 37.4 °F 34.9 °F 28.4 °F 70% 30.21 in 10.0 mi NNW 3.5 mph - N/A   Overcast
1:55 PM 37.4 °F 34.9 °F 26.6 °F 65% 30.19 in 10.0 mi ENE 3.5 mph - N/A   Overcast
2:15 PM 37.4 °F - 28.4 °F 70% 30.19 in 10.0 mi Calm Calm - N/A   Overcast
2:35 PM 37.4 °F 34.9 °F 28.4 °F 70% 30.19 in 10.0 mi North 3.5 mph - N/A   Overcast
2:55 PM 37.4 °F 33.8 °F 28.4 °F 70% 30.18 in 10.0 mi NE 4.6 mph - N/A   Overcast
3:15 PM 37.4 °F 33.8 °F 28.4 °F 70% 30.19 in 10.0 mi ENE 4.6 mph - N/A   Overcast
3:35 PM 35.6 °F 31.7 °F 28.4 °F 75% 30.18 in 10.0 mi NE 4.6 mph - N/A   Overcast
3:55 PM 35.6 °F 29.9 °F 28.4 °F 75% 30.18 in 10.0 mi NE 6.9 mph - N/A   Overcast
4:15 PM 35.6 °F 30.7 °F 28.4 °F 75% 30.17 in 10.0 mi NE 5.8 mph - N/A   Overcast
4:35 PM 35.6 °F 29.9 °F 30.2 °F 81% 30.17 in 10.0 mi NE 6.9 mph - N/A   Overcast
4:55 PM 35.6 °F 28.6 °F 30.2 °F 81% 30.17 in 9.0 mi NNE 9.2 mph - N/A   Overcast
5:15 PM 35.6 °F 29.2 °F 30.2 °F 81% 30.17 in 5.0 mi NNE 8.1 mph - 0.01 in   Overcast
5:35 PM 35.6 °F 29.9 °F 30.2 °F 81% 30.17 in 5.0 mi NNE 6.9 mph - 0.01 in   Overcast
5:55 PM 35.6 °F 30.7 °F 30.2 °F 81% 30.17 in 3.0 mi NNE 5.8 mph - 0.02 in   Overcast
6:15 PM 35.6 °F 30.7 °F 30.2 °F 81% 30.17 in 2.5 mi NE 5.8 mph - 0.01 in   Overcast
6:35 PM 35.6 °F 28.6 °F 30.2 °F 81% 30.17 in 3.0 mi NNE 9.2 mph - 0.01 in   Overcast
6:55 PM 33.8 °F 26.4 °F 30.2 °F 87% 30.17 in 3.0 mi NE 9.2 mph - 0.01 in   Overcast
7:15 PM 33.8 °F 27.7 °F 30.2 °F 87% 30.18 in 3.0 mi NE 6.9 mph - N/A   Overcast
7:35 PM 33.8 °F 28.6 °F 30.2 °F 87% 30.18 in 2.5 mi NE 5.8 mph - N/A   Overcast
7:55 PM 33.8 °F 26.4 °F 30.2 °F 87% 30.18 in 2.5 mi NNE 9.2 mph - N/A   Overcast
8:15 PM 33.8 °F 27.0 °F 30.2 °F 87% 30.17 in 2.0 mi NE 8.1 mph - N/A   Overcast
8:35 PM 33.8 °F 27.0 °F 30.2 °F 87% 30.17 in 2.0 mi ENE 8.1 mph - N/A   Overcast
8:55 PM 33.8 °F 27.7 °F 28.4 °F 81% 30.17 in 2.5 mi NE 6.9 mph - N/A   Overcast
9:15 PM 33.8 °F 27.7 °F 28.4 °F 81% 30.17 in 2.5 mi ENE 6.9 mph - N/A   Overcast
9:35 PM 33.8 °F 28.6 °F 28.4 °F 81% 30.17 in 2.5 mi NE 5.8 mph - N/A   Overcast
9:55 PM 33.8 °F 28.6 °F 28.4 °F 81% 30.17 in 2.5 mi ENE 5.8 mph - N/A   Overcast
10:15 PM 33.8 °F 30.8 °F 28.4 °F 81% 30.16 in 2.5 mi ENE 3.5 mph - N/A   Overcast
10:35 PM 33.8 °F 30.8 °F 28.4 °F 81% 30.17 in 3.0 mi East 3.5 mph - N/A   Overcast
10:55 PM 33.8 °F - 28.4 °F 81% 30.17 in 3.0 mi Calm Calm - N/A   Overcast
11:15 PM 33.8 °F - 28.4 °F 81% 30.17 in 4.0 mi Calm Calm - N/A   Overcast
11:35 PM 33.8 °F 30.8 °F 28.4 °F 81% 30.16 in 4.0 mi NE 3.5 mph - N/A   Overcast
11:55 PM 33.8 °F 30.8 °F 28.4 °F 81% 30.16 in 5.0 mi NNE 3.5 mph - N/A   Overcast